ANZ154 NZCH-NZWN

Flight info

Callsign ANZ154
Flight time 0h 37m
Altitude 25000
Route GRETA Y393 WARDS
Aircraft B738/M-V/N

Departure

Time 2026-04-29 22:57
Airport Christchurch International Airport (NZCH)

Arrival

Time 2026-04-29 23:35
Airport Wellington International Airport (NZWN)
Time Latitude Longitude Altitude Speed Heading
2026-04-29 22:41 -43.48788 172.53816 107 ft 0 kts 107°
2026-04-29 22:50 -43.48785 172.53804 107 ft 2 kts 107°
2026-04-29 22:50 -43.48780 172.53784 108 ft 2 kts 107°
2026-04-29 22:50 -43.48776 172.53764 108 ft 2 kts 107°
2026-04-29 22:50 -43.48771 172.53744 108 ft 2 kts 107°
2026-04-29 22:51 -43.48767 172.53725 108 ft 2 kts 107°
2026-04-29 22:51 -43.48764 172.53711 108 ft 2 kts 108°
2026-04-29 22:51 -43.48770 172.53687 108 ft 0 kts 46°
2026-04-29 22:52 -43.48770 172.53688 108 ft 0 kts 46°
2026-04-29 22:54 -43.48745 172.53725 108 ft 13 kts 46°
2026-04-29 22:54 -43.48646 172.53853 107 ft 24 kts 39°
2026-04-29 22:54 -43.48487 172.54024 107 ft 31 kts 41°
2026-04-29 22:54 -43.48322 172.54219 107 ft 30 kts 40°
2026-04-29 22:55 -43.48161 172.54404 107 ft 30 kts 39°
2026-04-29 22:55 -43.47998 172.54591 105 ft 30 kts 40°
2026-04-29 22:55 -43.47839 172.54779 103 ft 29 kts 40°
2026-04-29 22:55 -43.47675 172.54915 100 ft 26 kts 358°
2026-04-29 22:56 -43.47533 172.54814 100 ft 21 kts 265°
2026-04-29 22:56 -43.47558 172.54759 101 ft 0 kts 226°
2026-04-29 22:56 -43.47564 172.54750 102 ft 14 kts 226°
2026-04-29 22:56 -43.47843 172.54427 107 ft 89 kts 219°
2026-04-29 22:57 -43.48500 172.53674 110 ft 151 kts 219°
2026-04-29 22:57 -43.49389 172.52661 523 ft 170 kts 219°
2026-04-29 22:57 -43.50248 172.51678 1397 ft 163 kts 220°
2026-04-29 22:57 -43.50958 172.50388 1853 ft 179 kts 244°
2026-04-29 22:58 -43.51538 172.48804 2341 ft 193 kts 240°
2026-04-29 22:58 -43.52291 172.47180 2853 ft 208 kts 235°
2026-04-29 22:58 -43.53142 172.45515 3416 ft 221 kts 234°
2026-04-29 22:58 -43.54024 172.43791 4193 ft 223 kts 234°
2026-04-29 22:59 -43.54779 172.41966 4966 ft 224 kts 253°
2026-04-29 22:59 -43.54812 172.39815 5767 ft 226 kts 284°
2026-04-29 22:59 -43.54116 172.37856 6535 ft 229 kts 305°
2026-04-29 22:59 -43.52987 172.36275 7206 ft 236 kts 324°
2026-04-29 23:00 -43.51471 172.35472 7879 ft 242 kts 355°
2026-04-29 23:00 -43.49807 172.35785 8565 ft 245 kts 21°
2026-04-29 23:00 -43.48338 172.36955 9204 ft 248 kts 43°
2026-04-29 23:00 -43.47254 172.38780 9861 ft 249 kts 64°
2026-04-29 23:01 -43.46657 172.41046 10354 ft 257 kts 77°
2026-04-29 23:01 -43.46223 172.43486 10778 ft 272 kts 78°
2026-04-29 23:01 -43.45726 172.46060 11218 ft 286 kts 76°
2026-04-29 23:01 -43.45148 172.48744 11664 ft 301 kts 75°
2026-04-29 23:02 -43.44512 172.51558 12078 ft 317 kts 74°
2026-04-29 23:02 -43.43823 172.54546 12512 ft 332 kts 74°
2026-04-29 23:02 -43.43086 172.57631 12902 ft 349 kts 71°
2026-04-29 23:02 -43.41973 172.60681 13293 ft 368 kts 56°
2026-04-29 23:03 -43.40171 172.63190 13990 ft 375 kts 39°
2026-04-29 23:03 -43.38082 172.65309 14701 ft 381 kts 37°
2026-04-29 23:03 -43.35888 172.67425 15423 ft 387 kts 36°
2026-04-29 23:03 -43.33678 172.69550 16193 ft 390 kts 37°
2026-04-29 23:04 -43.31469 172.71695 16899 ft 395 kts 37°
2026-04-29 23:04 -43.29223 172.73898 17609 ft 400 kts 37°
2026-04-29 23:04 -43.26991 172.76108 18324 ft 403 kts 38°
2026-04-29 23:04 -43.24691 172.78394 19036 ft 407 kts 38°
2026-04-29 23:05 -43.22419 172.80655 19733 ft 410 kts 38°
2026-04-29 23:05 -43.20086 172.82977 20412 ft 414 kts 38°
2026-04-29 23:05 -43.17767 172.85283 21077 ft 418 kts 38°
2026-04-29 23:05 -43.15389 172.87646 21725 ft 421 kts 38°
2026-04-29 23:06 -43.13035 172.89981 22315 ft 426 kts 38°
2026-04-29 23:06 -43.10632 172.92366 22938 ft 429 kts 38°
2026-04-29 23:06 -43.08192 172.94783 23549 ft 432 kts 38°
2026-04-29 23:06 -43.05774 172.97176 24374 ft 429 kts 38°
2026-04-29 23:07 -43.03358 172.99561 25190 ft 425 kts 38°
2026-04-29 23:07 -43.00951 173.01935 25579 ft 428 kts 39°
2026-04-29 23:07 -42.98528 173.04326 25621 ft 426 kts 38°
2026-04-29 23:07 -42.96133 173.06685 25620 ft 422 kts 39°
2026-04-29 23:08 -42.93704 173.09103 25622 ft 422 kts 39°
2026-04-29 23:08 -42.91340 173.11476 25624 ft 423 kts 39°
2026-04-29 23:08 -42.88948 173.13886 25622 ft 422 kts 39°
2026-04-29 23:08 -42.86575 173.16277 25621 ft 422 kts 39°
2026-04-29 23:09 -42.84171 173.18695 25625 ft 423 kts 39°
2026-04-29 23:09 -42.81783 173.21094 25622 ft 423 kts 39°
2026-04-29 23:09 -42.79432 173.23448 25621 ft 424 kts 39°
2026-04-29 23:09 -42.77059 173.25822 25613 ft 424 kts 39°
2026-04-29 23:10 -42.74675 173.28203 25610 ft 424 kts 39°
2026-04-29 23:10 -42.72297 173.30574 25605 ft 424 kts 39°
2026-04-29 23:10 -42.69930 173.32935 25598 ft 425 kts 39°
2026-04-29 23:10 -42.67526 173.35327 25600 ft 425 kts 39°
2026-04-29 23:11 -42.65154 173.37686 25599 ft 425 kts 39°
2026-04-29 23:11 -42.62771 173.40053 25599 ft 425 kts 38°
2026-04-29 23:11 -42.60374 173.42432 25604 ft 425 kts 39°
2026-04-29 23:11 -42.57965 173.44820 25601 ft 425 kts 38°
2026-04-29 23:12 -42.55609 173.47153 25598 ft 425 kts 38°
2026-04-29 23:12 -42.53204 173.49532 25600 ft 426 kts 38°
2026-04-29 23:12 -42.50785 173.51923 25600 ft 425 kts 38°
2026-04-29 23:12 -42.48410 173.54268 25596 ft 425 kts 38°
2026-04-29 23:13 -42.45976 173.56670 25601 ft 426 kts 38°
2026-04-29 23:13 -42.43575 173.59038 25604 ft 426 kts 38°
2026-04-29 23:13 -42.41188 173.61388 25601 ft 425 kts 38°
2026-04-29 23:13 -42.38810 173.63727 25601 ft 425 kts 38°
2026-04-29 23:14 -42.36411 173.66083 25598 ft 426 kts 37°
2026-04-29 23:14 -42.34011 173.68439 25598 ft 427 kts 37°
2026-04-29 23:14 -42.31594 173.70811 25600 ft 427 kts 37°
2026-04-29 23:14 -42.29207 173.73149 25597 ft 427 kts 37°
2026-04-29 23:15 -42.26819 173.75485 25595 ft 417 kts 37°
2026-04-29 23:15 -42.24502 173.77748 25596 ft 404 kts 37°
2026-04-29 23:15 -42.22227 173.79970 25599 ft 406 kts 37°
2026-04-29 23:15 -42.19922 173.82225 25469 ft 412 kts 37°
2026-04-29 23:16 -42.17614 173.84477 25078 ft 409 kts 37°
2026-04-29 23:16 -42.15321 173.86713 24681 ft 402 kts 37°
2026-04-29 23:16 -42.13097 173.88876 24131 ft 400 kts 37°
2026-04-29 23:16 -42.10838 173.91072 23359 ft 392 kts 37°
2026-04-29 23:17 -42.08702 173.93144 23087 ft 373 kts 37°
2026-04-29 23:17 -42.06603 173.95181 22686 ft 370 kts 37°
2026-04-29 23:17 -42.04516 173.97206 21989 ft 369 kts 38°
2026-04-29 23:17 -42.02443 173.99219 21715 ft 378 kts 38°
2026-04-29 23:18 -42.00294 174.01306 21391 ft 383 kts 38°
2026-04-29 23:18 -41.98151 174.03381 20844 ft 376 kts 38°
2026-04-29 23:18 -41.96054 174.05408 20039 ft 372 kts 38°
2026-04-29 23:18 -41.93998 174.07390 19765 ft 355 kts 38°
2026-04-29 23:19 -41.91993 174.09325 19453 ft 365 kts 38°
2026-04-29 23:19 -41.89911 174.11339 18994 ft 364 kts 38°
2026-04-29 23:19 -41.87895 174.13286 18165 ft 363 kts 38°
2026-04-29 23:19 -41.85881 174.15225 17825 ft 346 kts 38°
2026-04-29 23:20 -41.83931 174.17102 17545 ft 354 kts 38°
2026-04-29 23:20 -41.81936 174.19025 17244 ft 354 kts 38°
2026-04-29 23:20 -41.79949 174.20934 16522 ft 351 kts 38°
2026-04-29 23:20 -41.77990 174.22815 15881 ft 344 kts 38°
2026-04-29 23:21 -41.76081 174.24640 15635 ft 331 kts 39°
2026-04-29 23:21 -41.74155 174.26476 15365 ft 344 kts 38°
2026-04-29 23:21 -41.72170 174.28174 14927 ft 340 kts 33°
2026-04-29 23:21 -41.70105 174.29672 14087 ft 341 kts 29°
2026-04-29 23:22 -41.68017 174.31049 13716 ft 326 kts 28°
2026-04-29 23:22 -41.65971 174.32367 13465 ft 330 kts 28°
2026-04-29 23:22 -41.63885 174.33733 13233 ft 333 kts 29°
2026-04-29 23:22 -41.61837 174.35092 12649 ft 329 kts 29°
2026-04-29 23:23 -41.59780 174.36475 11839 ft 328 kts 29°
2026-04-29 23:23 -41.57799 174.37813 11583 ft 310 kts 30°
2026-04-29 23:23 -41.55853 174.39134 11343 ft 322 kts 30°
2026-04-29 23:23 -41.53883 174.40472 11150 ft 315 kts 30°
2026-04-29 23:24 -41.51975 174.41762 10805 ft 303 kts 30°
2026-04-29 23:24 -41.50116 174.43018 10341 ft 295 kts 30°
2026-04-29 23:24 -41.48312 174.44237 9871 ft 288 kts 30°
2026-04-29 23:24 -41.46540 174.45435 9353 ft 285 kts 30°
2026-04-29 23:25 -41.44788 174.46619 8879 ft 279 kts 29°
2026-04-29 23:25 -41.43114 174.47748 8647 ft 266 kts 29°
2026-04-29 23:25 -41.41445 174.48874 8352 ft 267 kts 29°
2026-04-29 23:25 -41.39796 174.49988 7829 ft 267 kts 29°
2026-04-29 23:26 -41.38157 174.51092 7619 ft 263 kts 29°
2026-04-29 23:26 -41.36492 174.52216 7389 ft 273 kts 29°
2026-04-29 23:26 -41.34811 174.53346 7085 ft 266 kts 29°
2026-04-29 23:26 -41.33158 174.54456 6503 ft 267 kts 29°
2026-04-29 23:27 -41.31540 174.55542 6329 ft 257 kts 29°
2026-04-29 23:27 -41.29942 174.56615 6077 ft 254 kts 29°
2026-04-29 23:27 -41.28358 174.57678 5654 ft 258 kts 30°
2026-04-29 23:27 -41.26786 174.58733 5294 ft 251 kts 30°
2026-04-29 23:28 -41.25205 174.59793 5099 ft 258 kts 30°
2026-04-29 23:28 -41.23613 174.60919 4838 ft 260 kts 36°
2026-04-29 23:28 -41.22238 174.62416 4566 ft 256 kts 52°
2026-04-29 23:28 -41.21112 174.64224 4378 ft 248 kts 57°
2026-04-29 23:29 -41.20088 174.65987 4305 ft 240 kts 56°
2026-04-29 23:29 -41.19060 174.67699 4225 ft 232 kts 54°
2026-04-29 23:29 -41.18051 174.69319 4139 ft 222 kts 55°
2026-04-29 23:29 -41.17205 174.70934 3954 ft 213 kts 68°
2026-04-29 23:30 -41.16750 174.72800 3777 ft 211 kts 86°
2026-04-29 23:30 -41.16670 174.74709 3545 ft 208 kts 96°
2026-04-29 23:30 -41.16885 174.76625 3283 ft 201 kts 110°
2026-04-29 23:30 -41.17464 174.78316 3025 ft 197 kts 123°
2026-04-29 23:31 -41.18317 174.79767 2764 ft 197 kts 136°
2026-04-29 23:31 -41.19431 174.80801 2564 ft 184 kts 154°
2026-04-29 23:31 -41.20598 174.81294 2363 ft 169 kts 165°
2026-04-29 23:31 -41.21742 174.81474 2152 ft 162 kts 176°
2026-04-29 23:32 -41.22874 174.81372 1902 ft 161 kts 181°
2026-04-29 23:32 -41.23976 174.81267 1615 ft 155 kts 179°
2026-04-29 23:32 -41.25034 174.81201 1332 ft 149 kts 178°
2026-04-29 23:32 -41.26049 174.81136 1141 ft 141 kts 179°
2026-04-29 23:33 -41.27022 174.81068 965 ft 137 kts 179°
2026-04-29 23:33 -41.27950 174.81006 776 ft 135 kts 179°
2026-04-29 23:33 -41.28894 174.80937 618 ft 133 kts 180°
2026-04-29 23:33 -41.29832 174.80867 488 ft 136 kts 179°
2026-04-29 23:34 -41.30768 174.80826 282 ft 133 kts 181°
2026-04-29 23:34 -41.31717 174.80756 87 ft 134 kts 180°
2026-04-29 23:34 -41.32558 174.80701 32 ft 83 kts 182°
2026-04-29 23:34 -41.32944 174.80676 23 ft 50 kts 181°
2026-04-29 23:35 -41.33236 174.80653 21 ft 29 kts 181°
2026-04-29 23:35 -41.33279 174.80718 23 ft 6 kts 47°
2026-04-29 23:35 -41.33255 174.80753 25 ft 3 kts 43°
2026-04-29 23:35 -41.33183 174.80801 27 ft 23 kts 24°
2026-04-29 23:36 -41.33108 174.80939 29 ft 12 kts 87°
2026-04-29 23:36 -41.33083 174.80988 29 ft 6 kts 21°
2026-04-29 23:36 -41.33057 174.80991 29 ft 0 kts